069  
NZUS59 KLOT 210809  
HRRLOT  
 
CHICAGO AREA WEATHER ROUNDUP  
NATIONAL WEATHER SERVICE CHICAGO/ROMEOVILLE IL  
300 AM CDT SAT OCT 21 2017  
 
NOTE: "FAIR" INDICATES FEW OR NO CLOUDS BELOW 12,000 FEET WITH NO  
SIGNIFICANT WEATHER AND/OR OBSTRUCTIONS TO VISIBILITY.  
 
* THESE STATIONS ARE NOT UNDER NWS QUALITY CONTROL. THEY ALSO MAY NOT  
REPORT WEATHER SUCH AS PRECIPITATION OR FOG.  
 
ILZ005-006-012>014-019>023-210900-  
NORTHEAST ILLINOIS  
 
CITY SKY/WX TMP DP RH WIND PRES REMARKS  
OHARE CLOUDY 63 48 58 S7 30.05S  
MIDWAY CLOUDY 64 49 57 S10 30.06S  
AURORA CLOUDY 59 50 72 S7 30.04F  
LANSING* CLOUDY 60 51 73 S8 30.08F  
JOLIET* PTCLDY 62 51 66 S5 30.06F  
WAUKEGAN CLOUDY 65 48 54 S12 30.03F  
DUPAGE AIRPORT CLOUDY 60 50 69 S10 30.04F  
WHEELING CLOUDY 65 49 56 S12 30.06F  
KANKAKEE* MOCLDY 60 49 67 S6 30.09S  
MORRIS* CLOUDY 60 49 68 SE6 30.05R  
LEWIS AIRPORT* CLOUDY 59 50 72 S8 30.06F  
NORTHERLY ISL N/A 65 46 50 S8 N/A  

 
 
WIZ051-052-058>065-066-070>072-210900-  
SOUTHEAST WISCONSIN  
 
CITY SKY/WX TMP DP RH WIND PRES REMARKS  
MILWAUKEE CLOUDY 66 48 52 SW10 30.02F  
KENOSHA* CLOUDY 65 47 52 S9 30.02F  
RACINE* CLOUDY 66 48 52 S9G20 30.03F  
BURLINGTON CLOUDY 62 49 63 S8 30.02S  
WAUKESHA CLOUDY 61 45 55 S5 30.02F  
WEST BEND CLOUDY 61 45 55 S5 30.01S  

 
 
INZ001>003-010>013-019-020-210900-  
NORTHWEST INDIANA  
 
CITY SKY/WX TMP DP RH WIND PRES REMARKS  
GARY* MOCLDY 64 47 53 S8 30.09S  
MICHIGAN CITY* NOT AVBL  
RENSSELAER* NOT AVBL  
VALPARAISO CLOUDY 58 49 72 S6 30.11S  

 
 
LMZ740>746-210900-  
SOUTHERN LAKE MICHIGAN  
 
STATION/POSITION TIME SKY/WX TEMP WIND PRES VSBY  
AIR DIR/SP/G  
(UTC) (F) (DEG/KT/KT) (MB) (MI)  
HARRISON CRIB 0740 66 190/ 21/ 23 N/A  
BURNHAM HARBOR 0800 65 180/ 9/ 13 N/A  
CALUMET HARBOR 0748 63 180/ 8/ 11 1017.5S  
BURNS HARBOR 0740 62 190/ 12/ 16 1019.0S  
MICHIGAN CITY 0740 62 170/ 10/ 12 N/A  

 
 
ABBREVIATIONS USED IN REMARKS  
TC - TEMPERATURE IN CELSIUS  
WCI - WIND CHILL INDEX  
HX - HEAT INDEX  
VSB - VISIBILITY  

 
 
 
CLICK HERE TO GO TO PREVIOUS BULLETINS.

The Nexlab IL Page
The Nexlab IN Page Main Text Page